Weather in Pchevzha

Russia / Saint-Petersburg and Leningrad Oblast     59°21′22″N   32°20′40″E
temp.,
°C
wind,
m/s
gust,
m/s
humid.,
%
clouds,
%
prec.,
mm/h
press.,
hPa
HPBL,
m
24 october, sun
sun2400:00+3nnw499099 0.3 1008760
03:00+2nnw488872 0.4 1011826
06:00+1nnw3109794 0.2 1014703
09:00+1nw4997100 0.3 1017487
12:00+3nw477292 0.2 10201180
15:00+3nw476518 0.4 10221297
18:00−1wnw2683100 0.1 1024158
21:00−1w248552 0.1 1025106
25 october, mon
mon2500:00−2sw25875 0.0 1026120
03:00−1ssw388493 0.0 1025266
06:000s41289100 0.1 1023407
09:00+2ssw51387100 0.6 1020703
12:00+4sw51488100 0.4 1020673
15:00+6sw51284100 0.4 1018895
18:00+5sw51286100 0.1 1018800
21:00+5sw51284100 0.1 1017634
26 october, tue
tue2600:00+3sw412915 0.0 1016452
03:00+2sw41192100 0.0 1016396
06:00+2sw41191100 0.0 1015376
09:00+2ssw31090100 0.0 1014374
12:00+4sw4980100 0.0 1014487
15:00+5sw4879100 0.0 1013601
18:00+3ssw31088100 0.0 1013325
21:00+3ssw31089100 0.0 1012305
27 october, wed
wed2700:00+4ssw41087100 0.0 1011358
03:00+5ssw41187100 0.0 1009451
06:00+5ssw41091100 0.3 1008380
09:00+5sw41196100 2.6 1007562
12:00+7wsw41093100 0.9 1008606
15:00+7w398698 1.3 1008614
18:00+6wsw4119095 0.1 1009542
21:00+5wsw4119252 0.1 1011494
28 october, thu
thu2800:00+5wsw399568 0.0 1012355
03:00+4ssw2697100 0.0 1012185
06:00+4sse2797100 0.0 1010194
09:00+4ese3697100 2.6 1008209
12:00+5ese3797100 3.0 1008338
15:00+5ene3696100 3.9 1010282
18:00+5ene3995100 0.4 1013512
21:00+5ene4894100 0.7 1016630